EW7216 Weather Reports


Display with metric or nautical units.
time (UTC)temp
F
wind
direction
speed
MPH
gust
MPH
rain 1hr
in
rain 24hr
in
rain mn
in
humidity
%
barometer
mb
20260510153559 63 0.0 3.0 0.01 0.41 0.41 87 1016.4
20260510152549 63 0.0 2.0 0.01 0.41 0.41 86 1016.4
20260510151559 63 135 0.0 7.0 0.01 0.41 0.41 82 1016.3
20260510150550 64 135 1.0 8.0 0.00 0.40 0.40 79 1016.3
20260510145519 64 159 3.0 10.0 0.00 0.40 0.40 79 1016.2
20260510144610 64 146 2.0 7.0 0.00 0.40 0.40 79 1016.4
20260510143640 64 123 1.0 8.0 0.00 0.40 0.40 79 1016.3
20260510142550 63 119 1.0 8.0 0.00 0.40 0.40 79 1016.3
20260510141540 63 143 5.0 15.0 0.00 0.40 0.40 79 1016.4
20260510140530 63 156 2.0 10.0 0.00 0.40 0.40 79 1016.5
20260510135520 63 138 3.0 10.0 0.00 0.40 0.40 79 1016.5
20260510134611 63 155 6.0 15.0 0.00 0.40 0.40 78 1016.6
20260510133601 63 142 2.0 11.0 0.00 0.40 0.40 77 1016.5
20260510132551 63 124 2.0 9.0 0.00 0.40 0.40 77 1016.5
20260510131541 63 162 1.0 8.0 0.00 0.40 0.40 77 1016.7
20260510130552 63 166 2.0 8.0 0.00 0.40 0.40 77 1016.7
20260510125525 63 152 2.0 14.0 0.00 0.40 0.40 76 1016.4
20260510124612 63 151 8.0 19.0 0.00 0.40 0.40 76 1016.5
20260510123602 63 158 7.0 16.0 0.00 0.40 0.40 76 1016.7
20260510122553 63 142 2.0 9.0 0.00 0.40 0.40 77 1016.9
20260510121542 63 162 0.0 6.0 0.00 0.40 0.40 78 1017.2
20260510120532 63 150 1.0 4.0 0.00 0.40 0.40 77 1017.2
20260510115522 63 135 1.0 8.0 0.00 0.40 0.40 76 1017.1
20260510114613 64 0.0 4.0 0.00 0.40 0.40 75 1017.2
20260510113603 64 281 0.0 4.0 0.00 0.40 0.40 74 1017.1
20260510112553 63 152 8.0 19.0 0.00 0.40 0.40 73 1017.0
20260510111543 64 153 2.0 18.0 0.00 0.40 0.40 73 1016.9
20260510110533 64 162 10.0 21.0 0.00 0.40 0.40 74 1016.8
20260510105524 64 145 6.0 17.0 0.00 0.40 0.40 74 1017.0
20260510104615 65 149 6.0 18.0 0.00 0.40 0.40 73 1017.2
20260510103605 66 140 3.0 10.0 0.00 0.40 0.40 73 1017.2
20260510102555 64 154 3.0 13.0 0.00 0.40 0.40 75 1017.4
20260510101545 63 154 7.0 19.0 0.00 0.40 0.40 75 1017.4
20260510100534 62 156 7.0 17.0 0.00 0.40 0.40 77 1017.6
20260510095525 61 139 3.0 13.0 0.00 0.40 0.40 82 1017.8
20260510094616 61 161 1.0 7.0 0.00 0.40 0.40 85 1018.0
20260510093626 61 139 1.0 3.0 0.00 0.40 0.40 84 1018.2
20260510092556 61 121 0.0 2.0 0.00 0.40 0.40 84 1018.5
20260510091545 62 177 0.0 2.0 0.00 0.40 0.40 83 1018.3
20260510090535 61 154 1.0 6.0 0.00 0.40 0.40 82 1018.1
20260510085546 60 149 6.0 16.0 0.00 0.40 0.40 82 1018.1
20260510084516 61 147 5.0 11.0 0.00 0.40 0.40 82 1018.1
20260510083627 60 135 5.0 19.0 0.00 0.40 0.40 81 1018.0
20260510082557 60 124 6.0 15.0 0.00 0.40 0.40 83 1018.0
20260510081547 59 159 8.0 16.0 0.00 0.40 0.40 83 1018.1
20260510080536 60 141 6.0 13.0 0.00 0.40 0.40 81 1018.0
20260510075527 61 174 4.0 16.0 0.00 0.40 0.40 80 1018.0
20260510074516 61 148 6.0 22.0 0.00 0.40 0.40 79 1018.0
20260510073607 61 159 6.0 16.0 0.00 0.40 0.40 79 1018.1
20260510072618 61 140 6.0 14.0 0.00 0.40 0.40 80 1018.0
20260510071547 60 129 4.0 16.0 0.00 0.40 0.40 82 1018.0
20260510070538 59 160 4.0 15.0 0.00 0.40 0.40 82 1018.0
20260510065527 59 150 10.0 21.0 0.01 0.40 0.40 82 1017.5
20260510064517 59 137 11.0 26.0 0.01 0.40 0.40 82 1017.3
20260510063608 59 145 13.0 26.0 0.01 0.40 0.40 82 1017.8
20260510062618 59 149 9.0 18.0 0.01 0.40 0.40 82 1018.2
20260510061608 58 153 10.0 25.0 0.01 0.40 0.40 82 1018.1
20260510060538 58 165 8.0 16.0 0.01 0.40 0.40 82 1018.6
20260510055528 59 148 7.0 15.0 0.00 0.39 0.39 80 1018.7
20260510054518 59 152 8.0 14.0 0.00 0.39 0.39 81 1018.6
20260510053609 58 154 6.0 9.0 0.00 0.39 0.39 83 1018.8
20260510052559 58 163 6.0 13.0 0.00 0.39 0.39 84 1019.1
20260510051549 57 160 5.0 10.0 0.00 0.39 0.39 88 1019.4
20260510050539 56 159 3.0 7.0 0.00 0.39 0.39 89 1019.5
20260510045529 56 136 0.0 3.0 0.00 0.39 0.39 89 1019.8
20260510044519 56 149 0.0 1.0 0.00 0.39 0.39 89 1019.8
20260510043610 56 302 2.0 6.0 0.00 0.39 0.39 88 1020.0
20260510042600 57 251 1.0 3.0 0.00 0.39 0.39 87 1019.8
20260510041550 57 158 1.0 9.0 0.03 0.39 0.39 86 1019.5
20260510040600 57 144 7.0 14.0 0.07 0.39 0.39 86 1019.1
20260510035530 57 142 9.0 16.0 0.10 0.39 0.39 87 1018.9
20260510034520 57 146 10.0 18.0 0.12 0.39 0.39 88 1019.3
20260510033611 56 170 6.0 14.0 0.20 0.39 0.39 89 1019.3
20260510032601 56 159 6.0 14.0 0.27 0.39 0.39 89 1019.8
20260510031551 57 0.0 0.0 0.29 0.36 0.36 89 1020.4
20260510030542 56 140 4.0 10.0 0.28 0.32 0.32 89 1020.0
20260510025551 56 145 5.0 10.0 0.27 0.29 0.29 89 1020.2
20260510024521 56 157 7.0 11.0 0.25 0.27 0.27 89 1020.1
20260510023613 55 155 7.0 11.0 0.17 0.19 0.19 89 1020.4
20260510022602 55 142 8.0 13.0 0.10 0.12 0.12 87 1020.5
20260510021612 55 158 1.0 9.0 0.06 0.07 0.07 85 1020.7
20260510020543 57 128 2.0 9.0 0.04 0.04 0.04 82 1020.4
20260510015532 59 161 0.0 1.0 0.02 0.02 0.02 77 1020.4
20260510014522 59 168 7.0 14.0 0.02 0.02 0.02 74 1019.4
20260510013613 58 157 8.0 14.0 0.02 0.02 0.02 75 1019.4
20260510012603 58 151 11.0 16.0 0.02 0.02 0.02 76 1019.1
20260510011553 59 155 8.0 15.0 0.01 0.01 0.01 75 1019.0
20260510010543 60 148 3.0 10.0 0.00 0.00 0.00 73 1019.0
20260510005533 59 137 5.0 11.0 0.00 0.00 0.00 73 1019.0
20260510004523 59 151 4.0 9.0 0.00 0.00 0.00 73 1019.8
20260510003634 60 160 6.0 9.0 0.00 0.00 0.00 70 1020.0
20260510002604 60 170 2.0 6.0 0.00 0.00 0.00 70 1020.2
20260510001554 60 169 1.0 4.0 0.00 0.00 0.00 68 1020.6
20260510000544 61 144 0.0 2.0 0.00 0.00 0.00 66 1020.8
20260509235614 61 144 1.0 6.0 0.00 0.00 0.00 64 1021.1
20260509234524 62 155 1.0 4.0 0.00 0.00 0.00 63 1021.3
20260509233615 61 153 3.0 4.0 0.00 0.00 0.00 64 1021.6
20260509232605 59 156 5.0 7.0 0.00 0.00 0.00 70 1021.5
20260509231555 62 146 0.0 1.0 0.00 0.00 0.00 66 1021.6
20260509230545 63 0.0 4.0 0.00 0.00 0.00 60 1021.0
20260509225535 63 142 2.0 21.0 0.00 0.00 0.00 58 1020.2
20260509224525 63 149 7.0 15.0 0.00 0.00 0.00 58 1019.6
20260509223616 63 145 8.0 15.0 0.00 0.00 0.00 57 1020.0
20260509222606 64 136 6.0 17.0 0.00 0.00 0.00 56 1020.0
20260509221555 64 148 7.0 21.0 0.00 0.00 0.00 55 1020.0
20260509220546 63 168 7.0 15.0 0.00 0.00 0.00 58 1019.8
20260509215537 63 157 5.0 10.0 0.00 0.00 0.00 60 1020.2
20260509214527 63 147 6.0 13.0 0.00 0.00 0.00 60 1019.7
20260509213516 62 144 4.0 10.0 0.00 0.00 0.00 63 1019.8
20260509212607 63 142 4.0 14.0 0.00 0.00 0.00 64 1020.0
20260509211557 64 141 2.0 14.0 0.00 0.00 0.00 63 1019.7
20260509210547 64 144 2.0 10.0 0.00 0.00 0.00 61 1019.6
20260509205538 64 155 6.0 17.0 0.00 0.00 0.00 61 1019.5
20260509204548 64 167 10.0 22.0 0.00 0.00 0.00 60 1018.8
20260509203518 64 165 5.0 10.0 0.00 0.00 0.00 62 1019.3
20260509202609 64 160 2.0 6.0 0.00 0.00 0.00 65 1019.9
20260509201559 61 190 1.0 4.0 0.00 0.00 0.00 71 1020.3
20260509200548 61 156 4.0 6.0 0.00 0.00 0.00 75 1020.8
20260509195538 61 149 3.0 4.0 0.00 0.00 0.00 75 1021.1
20260509194528 61 156 2.0 4.0 0.00 0.00 0.00 73 1020.9
20260509193518 62 120 1.0 6.0 0.00 0.00 0.00 70 1020.8
20260509192609 62 141 2.0 3.0 0.00 0.00 0.00 68 1020.8
20260509191559 62 156 1.0 3.0 0.00 0.00 0.00 67 1020.5
20260509190549 63 138 1.0 7.0 0.00 0.00 0.00 66 1020.1
20260509185539 63 118 1.0 3.0 0.00 0.00 0.00 65 1020.0
20260509184529 63 147 1.0 4.0 0.00 0.00 0.00 64 1020.0
20260509183519 63 149 4.0 8.0 0.00 0.00 0.00 63 1019.7
20260509182610 64 150 0.0 2.0 0.00 0.00 0.00 62 1019.8
20260509181600 64 107 0.0 1.0 0.00 0.00 0.00 62 1019.6
20260509180550 64 151 0.0 2.0 0.00 0.00 0.00 62 1019.6
20260509175540 65 0.0 0.0 0.00 0.00 0.00 60 1019.8
20260509174530 65 0.0 2.0 0.00 0.00 0.00 62 1019.8
20260509173520 64 148 4.0 7.0 0.00 0.00 0.00 60 1019.5
20260509172611 66 149 2.0 4.0 0.00 0.00 0.00 58 1019.7
20260509171601 66 137 1.0 3.0 0.00 0.00 0.00 57 1019.9
20260509170551 67 138 1.0 3.0 0.00 0.00 0.00 57 1020.1
20260509165542 67 146 1.0 3.0 0.00 0.00 0.00 56 1020.3
20260509164532 68 129 0.0 2.0 0.00 0.00 0.00 54 1020.2
20260509163522 69 115 0.0 1.0 0.00 0.00 0.00 54 1020.3
20260509162613 70 130 0.0 2.0 0.00 0.00 0.00 54 1020.3
20260509161603 70 151 0.0 2.0 0.00 0.00 0.00 54 1020.1
20260509160552 71 0.0 1.0 0.00 0.00 0.00 55 1020.2
20260509155542 71 143 0.0 1.0 0.00 0.00 0.00 54 1020.1
20260509154552 71 109 0.0 1.0 0.00 0.00 0.00 55 1020.4